This demonstration page uses our WeatherBlox Daily Observations layout. Learn more.

Left ArrowRight Arrow

Hourly Observations for April 11, 2016

Temp ( °F °C ) Dew Point ( °F °C ) Humidity (%) Winds ( mph kmh ) Pressure ( in mb ) Visibility ( mi km ) Precip ( " mm )
12:49 am 00:49 Cloudy 61 16 57 14 88 88 SSE 5 7 29.94 1014 10 16 0.00 0.00
12:53 am 00:53 Cloudy 61 16.1 58 14.4 90 90 SE 5 7 29.96 1015 10 16 0.00 0.00
1:43 am 01:43 Cloudy 61 16.1 57 13.9 87 87 SE 5 7 29.94 1014 10 16 0.00 0.00
1:53 am 01:53 Cloudy 60 15.6 57 13.9 90 90 SSE 7 11 29.97 1015 10 16 0.00 0.00
2:48 am 02:48 Cloudy 61 16 55 13 83 83 S 8 13 29.94 1014 10 16 0.00 0.00
2:53 am 02:53 Cloudy 60 15.6 56 13.3 86 86 S 6 9 29.98 1015 10 16 0.00 0.00
3:53 am 03:53 Cloudy 59 15 55 12.8 87 87 Calm 29.99 1016 10 16 0.00 0.00
4:53 am 04:53 Cloudy 59 15 55 12.8 87 87 Calm 30.00 1016 10 16 0.00 0.00
5:53 am 05:53 Cloudy 59 15 55 12.8 87 87 Calm 30.01 1016 9 14 0.00 0.00
6:50 am 06:50 Cloudy 59 15 55 13 88 88 Calm 30.00 1016 10 16 0.00 0.00
6:53 am 06:53 Cloudy 60 15.6 55 12.8 84 84 Calm 30.02 1017 10 16 0.00 0.00
7:53 am 07:53 Cloudy 60 15.6 55 12.8 84 84 NE 5 7 30.04 1017 10 16 0.00 0.00
8:05 am 08:05 Cloudy 60 15.6 55 12.8 84 84 ENE 3 6 30.03 1017 10 16 0.00 0.00
8:26 am 08:26 Cloudy 61 16 55 13 83 83 Calm 30.03 1017 10 16 0.00 0.00
8:53 am 08:53 Cloudy 61 16.1 55 12.8 81 81 Calm 30.05 1018 10 16 0.00 0.00
9:53 am 09:53 Cloudy 62 16.7 54 12.2 75 75 Calm 30.06 1018 10 16 0.00 0.00
10:53 am 10:53 Cloudy 65 18.3 54 12.2 68 68 Calm 30.07 1018 10 16 0.00 0.00
11:53 am 11:53 Cloudy 67 19.4 55 12.8 66 66 WSW 5 7 30.07 1018 10 16 0.00 0.00
12:26 pm 12:26 Mostly Cloudy 70 21 55 13 60 60 SE 5 7 30.06 1018 10 16 0.00 0.00
12:53 pm 12:53 Mostly Cloudy 68 20 55 12.8 63 63 VRB 5 7 30.06 1018 10 16 0.00 0.00
1:16 pm 13:16 Partly Cloudy 68 20 55 13 64 64 Calm 30.03 1017 10 16 0.00 0.00
1:53 pm 13:53 Mostly Cloudy 70 21.1 56 13.3 61 61 VRB 3 6 30.06 1018 10 16 0.00 0.00
2:53 pm 14:53 Cloudy 70 21.1 57 13.9 64 64 SE 5 7 30.04 1017 10 16 0.00 0.00
3:53 pm 15:53 Cloudy 70 21.1 56 13.3 61 61 SE 6 9 30.03 1017 10 16 0.00 0.00
4:53 pm 16:53 Cloudy 71 21.7 56 13.3 59 59 S 9 15 30.01 1016 10 16 0.00 0.00
5:53 pm 17:53 Cloudy 71 21.7 55 12.8 57 57 SSW 5 7 30.01 1016 10 16 0.00 0.00
6:53 pm 18:53 Cloudy 70 21.1 56 13.3 61 61 SSE 3 6 30.01 1016 10 16 0.00 0.00
7:53 pm 19:53 Mostly Cloudy 68 20 56 13.3 65 65 Calm 30.01 1016 10 16 0.00 0.00
8:53 pm 20:53 Cloudy 66 18.9 58 14.4 75 75 Calm 30.03 1017 10 16 0.00 0.00
9:53 pm 21:53 Cloudy 65 18.3 59 15 81 81 Calm 30.05 1018 10 16 0.00 0.00
10:53 pm 22:53 Cloudy 66 18.9 57 13.9 73 73 S 6 9 30.05 1018 10 16 0.00 0.00
11:53 pm 23:53 Cloudy 66 18.9 55 12.8 68 68 S 9 15 30.07 1018 10 16 0.00 0.00

Powered by AerisWeather